Des Moines, IA

3:56 PM CDT on June 22, 2017 (GMT -0500)
Des Moines International

Weather History for KDSM - April, 2013

Change the Weather History Date:

Sunday, April 7, 2013

  Actual Average Record
Temperature  
Mean Temperature 53 °F 48 °F  
Max Temperature 70 °F 59 °F 80 °F (1991)
Min Temperature 35 °F 38 °F 16 °F (1936)
Degree Days  
Heating Degree Days 12 17  
Month to date heating degree days 134 126  
Since 1 July heating degree days 5463 5753  
Cooling Degree Days 0 0  
Month to date cooling degree days 0 0  
Year to date cooling degree days 0 1  
Growing Degree Days 2 (Base 50)    
Moisture  
Dew Point 38 °F    
Average Humidity 64    
Maximum Humidity 92    
Minimum Humidity 36    
Precipitation  
Precipitation T in 0.11 in 1.22 in (2011)
Month to date precipitation T 0.70  
Year to date precipitation 4.52 5.28  
Snow  
Snow 0.00 in 0.10 in 5.20 in (1982)
Month to date snowfall 0.0 0.7  
Since 1 July snowfall 48.3 34.2  
Snow Depth 0.00 in    
Sea Level Pressure  
Sea Level Pressure 29.86 in    
Wind  
Wind Speed 9 mph (ENE)    
Max Wind Speed 17 mph    
Max Gust Speed 21 mph    
Visibility 6 miles    
Events Fog , Rain    
T = Trace of Precipitation, MM = Missing Value Source: NWS Daily Summary

Daily Weather History Graph

Daily Weather History Graph

Search for Another Location

Airport or City:

Trip Planner

Search our weather history database for the weather conditions in past years. The results will help you decide how hot, cold, wet, or windy it might be!

Date:

Astronomy

Apr. 07, 2013 Rise Set
Actual Time 6:47 AM CDT 7:46 PM CDT
Civil Twilight 6:18 AM CDT 8:15 PM CDT
Nautical Twilight 5:45 AM CDT 8:48 PM CDT
Astronomical Twilight 5:10 AM CDT 9:24 PM CDT
Moon 5:07 AM CDT (4/7) 5:18 PM CDT (4/7)
Length of Visible Light 13h 56m
Length of Day
12h 59m
Waning Crescent, 8% of the Moon is Illuminated
Apr 7
Waning Crescent
Apr 10
New
Apr 18
First Quarter
Apr 25
Full
May 2
Last Quarter

Hourly Weather History & Observations

Time (CDT) Temp. Windchill Dew Point Humidity Pressure Visibility Wind Dir Wind Speed Gust Speed Precip Events Conditions
12:54 AM 48.9 °F - 39.9 °F 71% 29.81 in 9.0 mi North 6.9 mph - N/A   Partly Cloudy
1:54 AM 46.0 °F 43.1 °F 39.0 °F 76% 29.83 in 9.0 mi NNW 5.8 mph - N/A   Scattered Clouds
2:54 AM 45.0 °F 41.2 °F 37.9 °F 76% 29.84 in 8.0 mi NNW 6.9 mph - N/A   Scattered Clouds
3:54 AM 44.1 °F 40.1 °F 37.0 °F 76% 29.84 in 8.0 mi North 6.9 mph - N/A   Mostly Cloudy
4:54 AM 42.1 °F 37.7 °F 36.0 °F 79% 29.86 in 8.0 mi NNE 6.9 mph - N/A   Scattered Clouds
5:54 AM 39.9 °F 36.7 °F 35.1 °F 83% 29.88 in 7.0 mi North 4.6 mph - N/A   Partly Cloudy
6:54 AM 39.0 °F 35.7 °F 34.0 °F 82% 29.89 in 5.0 mi ENE 4.6 mph - N/A   Haze
7:41 AM 37.0 °F 31.0 °F 33.1 °F 86% 29.90 in 2.5 mi NNE 8.1 mph - N/A   Mostly Cloudy
7:43 AM 37.0 °F 31.0 °F 33.1 °F 86% 29.90 in 0.5 mi NE 8.1 mph - N/A   Overcast
7:54 AM 35.1 °F 28.6 °F 33.1 °F 92% 29.92 in 0.1 mi NE 8.1 mph - N/A Fog Fog
8:01 AM 36.0 °F 30.3 °F 34.0 °F 93% 29.91 in 0.1 mi ENE 6.9 mph - N/A Fog Fog
8:10 AM 36.0 °F 32.1 °F 34.0 °F 93% 29.92 in 0.1 mi NE 4.6 mph - N/A Fog Fog
8:40 AM 36.0 °F 31.1 °F 34.0 °F 93% 29.92 in 0.1 mi NE 5.8 mph - N/A Fog Fog
8:45 AM 37.0 °F 32.4 °F 35.1 °F 93% 29.92 in 0.1 mi NE 5.8 mph - N/A Fog Fog
8:54 AM 37.0 °F 31.6 °F 35.1 °F 93% 29.94 in 0.2 mi ENE 6.9 mph - N/A Fog Fog
9:34 AM 37.9 °F 32.7 °F 36.0 °F 93% 29.92 in 1.5 mi ENE 6.9 mph - N/A   Overcast
9:46 AM 39.0 °F 34.0 °F 36.0 °F 89% 29.93 in 2.5 mi ENE 6.9 mph - N/A   Overcast
9:54 AM 39.0 °F 34.0 °F 36.0 °F 89% 29.94 in 2.5 mi ENE 6.9 mph - N/A   Overcast
10:26 AM 42.1 °F 38.4 °F 36.0 °F 79% 29.93 in 2.5 mi ENE 5.8 mph - N/A   Haze
10:34 AM 42.1 °F 38.4 °F 37.0 °F 82% 29.93 in 3.0 mi ENE 5.8 mph - N/A   Haze
10:54 AM 43.0 °F 39.5 °F 37.0 °F 80% 29.95 in 5.0 mi ENE 5.8 mph - N/A   Haze
11:14 AM 45.0 °F 41.8 °F 37.9 °F 76% 29.94 in 6.0 mi Variable 5.8 mph - N/A   Haze
11:54 AM 46.9 °F - 39.0 °F 74% 29.94 in 7.0 mi East 8.1 mph - N/A   Overcast
12:54 PM 54.0 °F - 39.0 °F 57% 29.91 in 10.0 mi East 6.9 mph - N/A   Overcast
1:54 PM 59.0 °F - 39.9 °F 49% 29.88 in 10.0 mi SE 11.5 mph - N/A   Mostly Cloudy
2:54 PM 61.0 °F - 41.0 °F 48% 29.86 in 10.0 mi ESE 8.1 mph - 0.00 in   Overcast
3:54 PM 64.0 °F - 42.1 °F 45% 29.82 in 10.0 mi East 10.4 mph - N/A   Mostly Cloudy
4:54 PM 66.0 °F - 42.1 °F 42% 29.78 in 10.0 mi East 11.5 mph - N/A   Mostly Cloudy
5:54 PM 70.0 °F - 41.0 °F 35% 29.76 in 10.0 mi SE 16.1 mph - N/A   Mostly Cloudy
6:54 PM 69.1 °F - 41.0 °F 36% 29.74 in 10.0 mi ESE 9.2 mph - N/A   Mostly Cloudy
7:54 PM 66.0 °F - 42.1 °F 42% 29.73 in 10.0 mi ESE 12.7 mph - N/A   Mostly Cloudy
8:54 PM 63.0 °F - 42.1 °F 46% 29.71 in 10.0 mi ESE 10.4 mph - N/A   Mostly Cloudy
9:54 PM 62.1 °F - 42.1 °F 48% 29.70 in 10.0 mi ESE 10.4 mph - N/A   Mostly Cloudy
10:54 PM 61.0 °F - 42.1 °F 50% 29.69 in 10.0 mi ESE 11.5 mph - N/A   Overcast
11:54 PM 57.9 °F - 45.0 °F 62% 29.69 in 10.0 mi SSE 11.5 mph - 0.00 in Rain Light Rain